| time (UTC) | temp F | wind direction | speed MPH | gust MPH | rain 1hr in | rain 24hr in | rain mn in | humidity % | barometer mb |
| 20260508043821 | 47 | 147 | 8.0 | 12.0 | 0.00 | 0.16 | 0.16 | 60 | 1014.0 |
| 20260508043319 | 47 | 182 | 6.0 | 6.0 | 0.00 | 0.16 | 0.16 | 60 | 1014.3 |
| 20260508042815 | 47 | 152 | 5.0 | 8.0 | 0.00 | 0.16 | 0.16 | 60 | 1014.5 |
| 20260508042313 | 47 | 115 | 2.0 | 9.0 | 0.00 | 0.16 | 0.16 | 58 | 1014.4 |
| 20260508041810 | 48 | 102 | 6.0 | 7.0 | 0.00 | 0.16 | 0.16 | 58 | 1014.4 |
| 20260508041306 | 48 | 185 | 3.0 | 8.0 | 0.00 | 0.16 | 0.16 | 58 | 1014.4 |
| 20260508040803 | 48 | 150 | 2.0 | 11.0 | 0.00 | 0.16 | 0.16 | 57 | 1014.4 |
| 20260508040301 | 48 | 124 | 4.0 | 13.0 | 0.00 | 0.16 | 0.16 | 58 | 1014.4 |
| 20260508035757 | 48 | 30 | 1.0 | 5.0 | 0.00 | 0.16 | 0.16 | 57 | 1014.4 |
| 20260508035255 | 48 | 90 | 2.0 | 7.0 | 0.00 | 0.16 | 0.16 | 56 | 1014.4 |
| 20260508034751 | 48 | 159 | 6.0 | 8.0 | 0.00 | 0.16 | 0.16 | 55 | 1014.4 |
| 20260508034249 | 48 | 137 | 5.0 | 13.0 | 0.00 | 0.16 | 0.16 | 55 | 1014.6 |
| 20260508033746 | 49 | 109 | 3.0 | 5.0 | 0.00 | 0.16 | 0.16 | 54 | 1014.7 |
| 20260508033244 | 49 | 175 | 3.0 | 7.0 | 0.00 | 0.16 | 0.16 | 54 | 1014.8 |
| 20260508032741 | 49 | 168 | 3.0 | 5.0 | 0.00 | 0.16 | 0.16 | 53 | 1014.6 |
| 20260508032238 | 49 | 209 | 3.0 | 7.0 | 0.00 | 0.16 | 0.16 | 53 | 1014.7 |
| 20260508031735 | 50 | 156 | 3.0 | 5.0 | 0.00 | 0.16 | 0.16 | 53 | 1014.7 |
| 20260508031231 | 50 | 143 | 3.0 | 13.0 | 0.00 | 0.16 | 0.16 | 52 | 1014.7 |
| 20260508030728 | 49 | 214 | 3.0 | 9.0 | 0.00 | 0.16 | 0.16 | 53 | 1014.6 |
| 20260508030225 | 49 | 84 | 3.0 | 11.0 | 0.00 | 0.16 | 0.16 | 52 | 1014.5 |
| 20260508025721 | 50 | 125 | 3.0 | 11.0 | 0.00 | 0.16 | 0.16 | 52 | 1014.7 |
| 20260508025219 | 50 | 135 | 2.0 | 5.0 | 0.00 | 0.16 | 0.16 | 52 | 1014.8 |
| 20260508024714 | 50 | 45 | 6.0 | 6.0 | 0.00 | 0.16 | 0.16 | 51 | 1015.1 |
| 20260508024212 | 50 | 114 | 0.0 | 10.0 | 0.00 | 0.16 | 0.16 | 52 | 1014.8 |
| 20260508023708 | 50 | 119 | 2.0 | 11.0 | 0.00 | 0.16 | 0.16 | 50 | 1014.9 |
| 20260508023206 | 50 | 151 | 3.0 | 11.0 | 0.00 | 0.16 | 0.16 | 52 | 1014.9 |
| 20260508022701 | 50 | 90 | 2.0 | 6.0 | 0.00 | 0.16 | 0.16 | 52 | 1015.2 |
| 20260508022158 | 50 | 150 | 3.0 | 12.0 | 0.00 | 0.16 | 0.16 | 50 | 1015.2 |
| 20260508021655 | 50 | 82 | 0.0 | 9.0 | 0.00 | 0.16 | 0.16 | 52 | 1015.2 |
| 20260508021150 | 50 | 134 | 11.0 | 11.0 | 0.00 | 0.16 | 0.16 | 52 | 1015.3 |
| 20260508020648 | 50 | 143 | 6.0 | 12.0 | 0.00 | 0.16 | 0.16 | 50 | 1015.3 |
| 20260508020145 | 51 | 59 | 0.0 | 11.0 | 0.00 | 0.16 | 0.16 | 50 | 1015.1 |
| 20260508015643 | 51 | 117 | 4.0 | 13.0 | 0.00 | 0.16 | 0.16 | 49 | 1015.0 |
| 20260508015140 | 51 | 122 | 3.0 | 12.0 | 0.00 | 0.16 | 0.16 | 49 | 1015.2 |
| 20260508014636 | 51 | 137 | 9.0 | 11.0 | 0.00 | 0.16 | 0.16 | 49 | 1015.2 |
| 20260508014132 | 51 | 132 | 6.0 | 13.0 | 0.00 | 0.16 | 0.16 | 48 | 1015.1 |
| 20260508013628 | 53 | 155 | 3.0 | 6.0 | 0.00 | 0.16 | 0.16 | 48 | 1015.2 |
| 20260508013125 | 52 | 194 | 4.0 | 9.0 | 0.00 | 0.16 | 0.16 | 46 | 1015.5 |
| 20260508012623 | 53 | 94 | 3.0 | 9.0 | 0.00 | 0.16 | 0.16 | 47 | 1015.6 |
| 20260508012120 | 52 | 174 | 0.0 | 5.0 | 0.00 | 0.16 | 0.16 | 55 | 1015.6 |
| 20260508011618 | 51 | 349 | 3.0 | 5.0 | 0.00 | 0.16 | 0.16 | 60 | 1015.7 |
| 20260508011115 | 51 | 231 | 2.0 | 2.0 | 0.00 | 0.16 | 0.16 | 59 | 1015.6 |
| 20260508010612 | 50 | 211 | 3.0 | 5.0 | 0.00 | 0.16 | 0.16 | 61 | 1015.4 |
| 20260508010110 | 51 | 146 | 2.0 | 7.0 | 0.00 | 0.16 | 0.16 | 60 | 1015.7 |
| 20260508005606 | 51 | 154 | 3.0 | 5.0 | 0.00 | 0.16 | 0.16 | 62 | 1015.4 |
| 20260508005103 | 53 | 194 | 5.0 | 9.0 | 0.00 | 0.16 | 0.16 | 57 | 1015.7 |
| 20260508004559 | 52 | 189 | 5.0 | 9.0 | 0.00 | 0.16 | 0.16 | 54 | 1015.7 |
| 20260508004056 | 51 | 228 | 2.0 | 5.0 | 0.00 | 0.16 | 0.16 | 52 | 1015.8 |
| 20260508003552 | 52 | 168 | 6.0 | 7.0 | 0.00 | 0.16 | 0.16 | 52 | 1015.7 |
| 20260508003050 | 52 | 41 | 2.0 | 7.0 | 0.00 | 0.16 | 0.16 | 54 | 1015.8 |
| 20260508002546 | 53 | 71 | 1.0 | 15.0 | 0.00 | 0.16 | 0.16 | 48 | 1015.7 |
| 20260508002043 | 53 | 75 | 6.0 | 14.0 | 0.00 | 0.16 | 0.16 | 46 | 1015.9 |
| 20260508001539 | 54 | 183 | 9.0 | 11.0 | 0.00 | 0.16 | 0.16 | 45 | 1015.8 |
| 20260508001035 | 56 | 173 | 5.0 | 10.0 | 0.00 | 0.16 | 0.16 | 44 | 1016.0 |
| 20260508000531 | 56 | 81 | 3.0 | 14.0 | 0.00 | 0.16 | 0.16 | 44 | 1016.2 |
| 20260508000029 | 55 | 139 | 2.0 | 10.0 | 0.00 | 0.16 | 0.16 | 47 | 1016.2 |
| 20260507235525 | 53 | 106 | 2.0 | 13.0 | 0.00 | 0.16 | 0.16 | 49 | 1016.1 |
| 20260507235023 | 52 | 189 | 5.0 | 8.0 | 0.00 | 0.16 | 0.16 | 51 | 1016.2 |
| 20260507234519 | 50 | 160 | 6.0 | 10.0 | 0.00 | 0.16 | 0.16 | 51 | 1016.3 |
| 20260507234016 | 50 | 151 | 5.0 | 7.0 | 0.00 | 0.16 | 0.16 | 57 | 1016.5 |
| 20260507233512 | 50 | 189 | 7.0 | 10.0 | 0.00 | 0.16 | 0.16 | 56 | 1016.3 |
| 20260507233011 | 50 | 156 | 7.0 | 13.0 | 0.00 | 0.16 | 0.16 | 51 | 1016.3 |
| 20260507232507 | 50 | 243 | 2.0 | 13.0 | 0.00 | 0.16 | 0.16 | 52 | 1016.5 |
| 20260507232004 | 50 | 75 | 2.0 | 15.0 | 0.00 | 0.16 | 0.16 | 52 | 1016.4 |
| 20260507231500 | 51 | 212 | 9.0 | 14.0 | 0.00 | 0.16 | 0.16 | 53 | 1016.3 |
| 20260507230958 | 51 | 188 | 16.0 | 17.0 | 0.00 | 0.16 | 0.16 | 58 | 1016.6 |
| 20260507230455 | 51 | 201 | 5.0 | 11.0 | 0.00 | 0.16 | 0.16 | 55 | 1016.5 |
| 20260507225950 | 51 | 147 | 9.0 | 18.0 | 0.00 | 0.16 | 0.16 | 50 | 1016.6 |
| 20260507225446 | 52 | 129 | 5.0 | 9.0 | 0.00 | 0.16 | 0.16 | 56 | 1016.5 |
| 20260507224943 | 50 | 348 | 0.0 | 9.0 | 0.00 | 0.16 | 0.16 | 59 | 1016.6 |
| 20260507224438 | 50 | 204 | 4.0 | 8.0 | 0.00 | 0.16 | 0.16 | 61 | 1016.6 |
| 20260507223935 | 50 | 180 | 1.0 | 9.0 | 0.00 | 0.16 | 0.16 | 62 | 1016.5 |
| 20260507223431 | 50 | 22 | 3.0 | 7.0 | 0.00 | 0.16 | 0.16 | 56 | 1016.6 |
| 20260507222929 | 49 | 176 | 7.0 | 11.0 | 0.00 | 0.16 | 0.16 | 63 | 1016.7 |
| 20260507222425 | 50 | 155 | 3.0 | 11.0 | 0.00 | 0.16 | 0.16 | 64 | 1016.7 |
| 20260507221922 | 49 | 267 | 3.0 | 9.0 | 0.00 | 0.16 | 0.16 | 58 | 1016.5 |
| 20260507221418 | 50 | 182 | 4.0 | 20.0 | 0.00 | 0.16 | 0.16 | 61 | 1016.6 |
| 20260507220914 | 51 | 178 | 0.0 | 8.0 | 0.00 | 0.16 | 0.16 | 54 | 1016.8 |
| 20260507220413 | 50 | 197 | 6.0 | 11.0 | 0.00 | 0.16 | 0.16 | 59 | 1016.8 |
| 20260507215909 | 51 | 134 | 5.0 | 10.0 | 0.00 | 0.16 | 0.16 | 51 | 1016.7 |
| 20260507215406 | 52 | 0 | 3.0 | 6.0 | 0.00 | 0.16 | 0.16 | 52 | 1016.6 |
| 20260507214903 | 51 | 103 | 0.0 | 7.0 | 0.00 | 0.16 | 0.16 | 52 | 1016.9 |
| 20260507214400 | 51 | 182 | 4.0 | 11.0 | 0.00 | 0.16 | 0.16 | 53 | 1016.8 |
| 20260507213856 | 51 | 148 | 6.0 | 14.0 | 0.00 | 0.16 | 0.16 | 54 | 1016.9 |
| 20260507213352 | 52 | 138 | 5.0 | 9.0 | 0.00 | 0.16 | 0.16 | 53 | 1016.7 |
| 20260507212850 | 52 | 144 | 3.0 | 9.0 | 0.00 | 0.16 | 0.16 | 54 | 1017.0 |
| 20260507212345 | 50 | 180 | 1.0 | 6.0 | 0.00 | 0.16 | 0.16 | 61 | 1016.9 |
| 20260507211842 | 51 | 59 | 4.0 | 4.0 | 0.00 | 0.16 | 0.16 | 60 | 1017.1 |
| 20260507211339 | 50 | 41 | 0.0 | 3.0 | 0.00 | 0.16 | 0.16 | 65 | 1017.2 |
| 20260507210836 | 49 | 319 | 2.0 | 3.0 | 0.00 | 0.16 | 0.16 | 68 | 1017.3 |
| 20260507210333 | 48 | 75 | 0.0 | 4.0 | 0.00 | 0.16 | 0.16 | 67 | 1017.2 |
| 20260507205829 | 47 | 57 | 1.0 | 2.0 | 0.00 | 0.16 | 0.16 | 67 | 1017.4 |
| 20260507205326 | 48 | 75 | 0.0 | 3.0 | 0.00 | 0.16 | 0.16 | 67 | 1017.2 |
| 20260507204822 | 48 | 352 | 2.0 | 2.0 | 0.00 | 0.16 | 0.16 | 65 | 1017.5 |
| 20260507204320 | 48 | 15 | 0.0 | 3.0 | 0.00 | 0.16 | 0.16 | 66 | 1017.5 |
| 20260507203818 | 47 | 127 | 3.0 | 3.0 | 0.00 | 0.16 | 0.16 | 65 | 1017.5 |
| 20260507203315 | 47 | 184 | 2.0 | 5.0 | 0.00 | 0.16 | 0.16 | 67 | 1017.5 |
| 20260507202811 | 47 | 29 | 0.0 | 4.0 | 0.00 | 0.16 | 0.16 | 67 | 1017.8 |
| 20260507202308 | 47 | 56 | 2.0 | 3.0 | 0.00 | 0.16 | 0.16 | 68 | 1017.6 |
| 20260507201803 | 47 | 155 | 3.0 | 5.0 | 0.00 | 0.16 | 0.16 | 67 | 1017.9 |
| 20260507201259 | 48 | 114 | 0.0 | 3.0 | 0.00 | 0.16 | 0.16 | 67 | 1017.6 |
| 20260507200755 | 48 | 41 | 2.0 | 4.0 | 0.00 | 0.16 | 0.16 | 68 | 1017.6 |
| 20260507200251 | 47 | 114 | 1.0 | 4.0 | 0.00 | 0.16 | 0.16 | 69 | 1017.7 |
| 20260507195747 | 48 | 83 | 1.0 | 3.0 | 0.00 | 0.16 | 0.16 | 70 | 1017.8 |
| 20260507195245 | 48 | 90 | 2.0 | 3.0 | 0.00 | 0.16 | 0.16 | 70 | 1017.9 |
| 20260507194742 | 47 | 129 | 5.0 | 7.0 | 0.00 | 0.16 | 0.16 | 69 | 1017.6 |
| 20260507194238 | 48 | 154 | 3.0 | 7.0 | 0.00 | 0.16 | 0.16 | 70 | 1017.8 |
| 20260507193735 | 49 | 126 | 1.0 | 5.0 | 0.00 | 0.16 | 0.16 | 68 | 1017.8 |
| 20260507193232 | 48 | 203 | 1.0 | 6.0 | 0.00 | 0.16 | 0.16 | 70 | 1017.7 |
| 20260507192728 | 49 | 215 | 1.0 | 5.0 | 0.00 | 0.16 | 0.16 | 69 | 1018.0 |
| 20260507192225 | 49 | 29 | 3.0 | 6.0 | 0.00 | 0.16 | 0.16 | 68 | 1018.1 |
| 20260507191720 | 48 | 123 | 0.0 | 5.0 | 0.00 | 0.16 | 0.16 | 69 | 1018.0 |
| 20260507104957 | 41 | 345 | 0.0 | 2.0 | 0.00 | 0.00 | 0.00 | 87 | 1018.1 |
| 20260507104455 | 41 | 345 | 0.0 | 2.0 | 0.00 | 0.00 | 0.00 | 87 | 1018.1 |
| 20260507103950 | 41 | 355 | 0.0 | 1.0 | 0.00 | 0.00 | 0.00 | 87 | 1018.0 |
| 20260507103447 | 41 | 7 | 0.0 | 3.0 | 0.00 | 0.00 | 0.00 | 88 | 1018.0 |
| 20260507102943 | 41 | 355 | 0.0 | 3.0 | 0.00 | 0.00 | 0.00 | 88 | 1017.9 |
| 20260507102440 | 41 | 5 | 0.0 | 4.0 | 0.00 | 0.00 | 0.00 | 89 | 1017.9 |
| 20260507101937 | 41 | 24 | 0.0 | 3.0 | 0.00 | 0.00 | 0.00 | 89 | 1017.9 |
| 20260507101432 | 41 | 12 | 1.0 | 3.0 | 0.00 | 0.00 | 0.00 | 89 | 1018.2 |
| 20260507100928 | 41 | 0 | 0.0 | 2.0 | 0.00 | 0.00 | 0.00 | 89 | 1017.8 |
| 20260507100426 | 41 | 0 | 0.0 | 1.0 | 0.00 | 0.00 | 0.00 | 89 | 1017.9 |
| 20260507095924 | 41 | 14 | 1.0 | 2.0 | 0.00 | 0.00 | 0.00 | 89 | 1017.9 |
| 20260507095421 | 41 | 346 | 0.0 | 0.0 | 0.00 | 0.00 | 0.00 | 89 | 1017.9 |
| 20260507094918 | 41 | 346 | 0.0 | 1.0 | 0.00 | 0.00 | 0.00 | 89 | 1017.9 |
| 20260507094414 | 41 | 23 | 0.0 | 0.0 | 0.00 | 0.00 | 0.00 | 89 | 1017.9 |
| 20260507093911 | 41 | 23 | 0.0 | 1.0 | 0.00 | 0.00 | 0.00 | 89 | 1017.7 |
| 20260507093410 | 41 | 41 | 0.0 | 2.0 | 0.00 | 0.00 | 0.00 | 89 | 1017.7 |
| 20260507092908 | 41 | 353 | 0.0 | 0.0 | 0.00 | 0.00 | 0.00 | 89 | 1017.8 |
| 20260507092403 | 41 | 353 | 0.0 | 2.0 | 0.00 | 0.00 | 0.00 | 89 | 1017.7 |
| 20260507091900 | 41 | 7 | 0.0 | 1.0 | 0.00 | 0.00 | 0.00 | 89 | 1017.8 |
| 20260507091356 | 41 | 300 | 0.0 | 1.0 | 0.00 | 0.00 | 0.00 | 88 | 1017.7 |
| 20260507090852 | 41 | 15 | 0.0 | 0.0 | 0.00 | 0.00 | 0.00 | 88 | 1017.5 |
| 20260507090349 | 41 | 344 | 0.0 | 2.0 | 0.00 | 0.00 | 0.00 | 88 | 1017.5 |
| 20260507085846 | 41 | 300 | 0.0 | 0.0 | 0.00 | 0.00 | 0.00 | 88 | 1017.5 |
| 20260507085343 | 42 | 300 | 0.0 | 0.0 | 0.00 | 0.00 | 0.00 | 88 | 1017.5 |
| 20260507084840 | 42 | 300 | 0.0 | 0.0 | 0.00 | 0.00 | 0.00 | 87 | 1017.3 |
| 20260507084336 | 42 | 300 | 0.0 | 0.0 | 0.00 | 0.00 | 0.00 | 87 | 1017.3 |
| 20260507083834 | 42 | 300 | 0.0 | 3.0 | 0.00 | 0.00 | 0.00 | 87 | 1017.1 |
| 20260507083330 | 42 | 20 | 0.0 | 1.0 | 0.00 | 0.00 | 0.00 | 87 | 1017.3 |
| 20260507082826 | 42 | 0 | 0.0 | 1.0 | 0.00 | 0.00 | 0.00 | 86 | 1017.1 |
| 20260507082322 | 42 | 283 | 0.0 | 0.0 | 0.00 | 0.00 | 0.00 | 86 | 1017.0 |
| 20260507081819 | 42 | 346 | 0.0 | 2.0 | 0.00 | 0.00 | 0.00 | 86 | 1017.0 |
| 20260507081315 | 42 | 11 | 3.0 | 5.0 | 0.00 | 0.00 | 0.00 | 86 | 1016.9 |
| 20260507080812 | 42 | 0 | 0.0 | 2.0 | 0.00 | 0.00 | 0.00 | 86 | 1017.2 |
| 20260507080308 | 42 | 10 | 2.0 | 3.0 | 0.00 | 0.00 | 0.00 | 86 | 1016.9 |
| 20260507075803 | 42 | 15 | 0.0 | 1.0 | 0.00 | 0.00 | 0.00 | 87 | 1017.0 |
| 20260507075300 | 42 | 324 | 2.0 | 3.0 | 0.00 | 0.00 | 0.00 | 87 | 1016.9 |
| 20260507074756 | 43 | 4 | 2.0 | 5.0 | 0.00 | 0.00 | 0.00 | 87 | 1017.0 |
| 20260507074255 | 43 | 353 | 1.0 | 2.0 | 0.00 | 0.00 | 0.00 | 88 | 1016.7 |
| 20260507073751 | 42 | 0 | 0.0 | 2.0 | 0.00 | 0.00 | 0.00 | 89 | 1016.8 |
| 20260507073248 | 42 | 14 | 1.0 | 3.0 | 0.00 | 0.00 | 0.00 | 89 | 1016.9 |
| 20260507072746 | 42 | 15 | 0.0 | 3.0 | 0.00 | 0.00 | 0.00 | 90 | 1016.6 |
| 20260507072243 | 42 | 26 | 0.0 | 2.0 | 0.00 | 0.00 | 0.00 | 90 | 1016.6 |
| 20260507071740 | 42 | 6 | 0.0 | 2.0 | 0.00 | 0.00 | 0.00 | 90 | 1016.4 |
| 20260507071236 | 42 | 29 | 0.0 | 1.0 | 0.00 | 0.00 | 0.00 | 90 | 1016.6 |
| 20260507070733 | 42 | 26 | 1.0 | 2.0 | 0.00 | 0.00 | 0.00 | 90 | 1016.4 |
| 20260507070230 | 42 | 15 | 0.0 | 0.0 | 0.00 | 0.00 | 0.00 | 90 | 1016.6 |
| 20260507065727 | 42 | 23 | 0.0 | 1.0 | 0.00 | 0.00 | 0.00 | 90 | 1016.5 |
| 20260507065224 | 43 | 14 | 0.0 | 2.0 | 0.00 | 0.00 | 0.00 | 90 | 1016.4 |
| 20260507064721 | 43 | 15 | 0.0 | 2.0 | 0.00 | 0.00 | 0.00 | 89 | 1016.3 |
| 20260507064220 | 43 | 0 | 0.0 | 0.0 | 0.00 | 0.00 | 0.00 | 89 | 1016.2 |
| 20260507063717 | 43 | 0 | 0.0 | 0.0 | 0.00 | 0.00 | 0.00 | 89 | 1016.3 |
| 20260507063213 | 43 | 0 | 0.0 | 2.0 | 0.00 | 0.00 | 0.00 | 88 | 1016.3 |
| 20260507062710 | 43 | 26 | 2.0 | 2.0 | 0.00 | 0.00 | 0.00 | 89 | 1016.0 |
| 20260507062208 | 43 | 346 | 0.0 | 2.0 | 0.00 | 0.00 | 0.00 | 89 | 1016.1 |
| 20260507061706 | 43 | 353 | 0.0 | 2.0 | 0.00 | 0.00 | 0.00 | 88 | 1015.9 |
| 20260507061203 | 43 | 259 | 2.0 | 2.0 | 0.00 | 0.00 | 0.00 | 88 | 1015.9 |
| 20260507060701 | 43 | 246 | 0.0 | 3.0 | 0.00 | 0.00 | 0.00 | 88 | 1015.9 |
| 20260507060157 | 43 | 348 | 1.0 | 2.0 | 0.00 | 0.00 | 0.00 | 87 | 1015.6 |
| 20260507055653 | 43 | 353 | 2.0 | 3.0 | 0.00 | 0.00 | 0.00 | 87 | 1015.7 |
| 20260507055149 | 44 | 328 | 3.0 | 5.0 | 0.00 | 0.00 | 0.00 | 87 | 1015.7 |
| 20260507054645 | 44 | 348 | 2.0 | 5.0 | 0.00 | 0.00 | 0.00 | 86 | 1015.7 |
| 20260507054142 | 44 | 350 | 2.0 | 4.0 | 0.00 | 0.00 | 0.00 | 86 | 1015.5 |
| 20260507053641 | 44 | 334 | 0.0 | 2.0 | 0.00 | 0.00 | 0.00 | 85 | 1015.6 |
| 20260507053138 | 44 | 0 | 0.0 | 2.0 | 0.00 | 0.00 | 0.00 | 85 | 1015.6 |
| 20260507052637 | 44 | 66 | 0.0 | 3.0 | 0.00 | 0.00 | 0.00 | 84 | 1015.5 |
| 20260507052132 | 44 | 356 | 4.0 | 4.0 | 0.00 | 0.00 | 0.00 | 84 | 1015.3 |
| 20260507051630 | 44 | 3 | 3.0 | 4.0 | 0.00 | 0.00 | 0.00 | 83 | 1015.5 |
| 20260507051126 | 44 | 270 | 2.0 | 3.0 | 0.00 | 0.00 | 0.00 | 83 | 1015.6 |
| 20260507050624 | 45 | 263 | 0.0 | 3.0 | 0.00 | 0.00 | 0.00 | 82 | 1015.3 |
| 20260507050120 | 45 | 290 | 2.0 | 3.0 | 0.00 | 0.00 | 0.00 | 82 | 1015.4 |
| 20260507045617 | 45 | 175 | 0.0 | 2.0 | 0.00 | 0.00 | 0.00 | 81 | 1015.3 |
| 20260507045114 | 45 | 212 | 0.0 | 3.0 | 0.00 | 0.00 | 0.00 | 81 | 1015.3 |
| 20260507044611 | 45 | 318 | 3.0 | 3.0 | 0.00 | 0.00 | 0.00 | 81 | 1015.1 |